When you browse on this site, cookies collect data to enhance your experience and personalize the content and advertising you see.
Visit our Privacy Policy to learn more. By continuing to use the site, you agree to this use of cookies and data.
  • En España
  • Lista de países
  • Para 7 días
  • Temperatura del agua
  • Mapa Satelital
  • El tiempo en el mapa
  • Informadores
  • user-avatar
    Iniciar sesión

    Tiempo cada hora Qala i Naw

    Hoy, 23 Enero, Miércoles

    Tiempo Temperatura Precipitaciones Viento Presión Humedad
    00:00 +3°C° 0 mm 1 mps 681 mmHg 46%
    01:00 +3°C° 0 mm 1 mps 681 mmHg 43%
    02:00 +3°C° 0 mm 1 mps 681 mmHg 43%
    03:00 +3°C° 0 mm 1 mps 682 mmHg 42%
    04:00 +2°C° 0 mm 2 mps 682 mmHg 41%
    05:00 +2°C° 0 mm 2 mps 682 mmHg 41%
    06:00 +2°C° 0 mm 2 mps 682 mmHg 40%
    07:00 +2°C° 0 mm 2 mps 682 mmHg 40%
    08:00 +3°C° 0 mm 2 mps 683 mmHg 37%
    09:00 +6°C° 0 mm 1 mps 683 mmHg 33%
    10:00 +8°C° 0 mm 1 mps 683 mmHg 29%
    11:00 +8°C° 0 mm 1 mps 683 mmHg 28%
    12:00 +9°C° 0 mm 1 mps 683 mmHg 27%
    13:00 +10°C° 0 mm 1 mps 683 mmHg 26%
    14:00 +10°C° 0 mm 1 mps 683 mmHg 27%
    15:00 +10°C° 0 mm 1 mps 683 mmHg 28%
    16:00 +10°C° 0 mm 1 mps 683 mmHg 30%
    17:00 +9°C° 0 mm 1 mps 683 mmHg 34%
    18:00 +7°C° 0 mm 1 mps 684 mmHg 38%
    19:00 +6°C° 0 mm 1 mps 684 mmHg 43%
    20:00 +6°C° 0 mm 1 mps 684 mmHg 43%
    21:00 +6°C° 0 mm 1 mps 685 mmHg 43%
    22:00 +5°C° 0 mm 1 mps 685 mmHg 43%
    23:00 +5°C° 0 mm 1 mps 685 mmHg 44%

    Mañana, 24 Enero, Jueves

    Tiempo Temperatura Precipitaciones Viento Presión Humedad
    00:00 +5°C° 0 mm 1 mps 686 mmHg 44%
    01:00 +4°C° 0 mm 1 mps 686 mmHg 45%
    02:00 +4°C° 0 mm 1 mps 686 mmHg 45%
    03:00 +4°C° 0 mm 1 mps 686 mmHg 46%
    04:00 +3°C° 0 mm 1 mps 686 mmHg 47%
    05:00 +3°C° 0 mm 1 mps 686 mmHg 47%
    06:00 +3°C° 0 mm 1 mps 686 mmHg 46%
    07:00 +2°C° 0 mm 2 mps 687 mmHg 46%
    08:00 +4°C° 0 mm 2 mps 687 mmHg 40%
    09:00 +5°C° 0 mm 2 mps 687 mmHg 35%
    10:00 +7°C° 0 mm 2 mps 688 mmHg 29%
    11:00 +9°C° 0 mm 1 mps 687 mmHg 27%
    12:00 +9°C° 0 mm 1 mps 687 mmHg 25%
    13:00 +10°C° 0 mm 1 mps 686 mmHg 23%
    14:00 +10°C° 0 mm 1 mps 686 mmHg 23%
    15:00 +10°C° 0 mm 1 mps 686 mmHg 24%
    16:00 +10°C° 0 mm 1 mps 686 mmHg 24%
    17:00 +9°C° 0 mm 1 mps 686 mmHg 27%
    18:00 +7°C° 0 mm 2 mps 686 mmHg 30%
    19:00 +6°C° 0 mm 2 mps 686 mmHg 33%
    20:00 +6°C° 0 mm 2 mps 686 mmHg 34%
    21:00 +5°C° 0 mm 2 mps 686 mmHg 35%
    22:00 +4°C° 0 mm 3 mps 686 mmHg 36%
    23:00 +4°C° 0 mm 3 mps 686 mmHg 36%

    Pasado mañana, 25 Enero, Viernes

    Tiempo Temperatura Precipitaciones Viento Presión Humedad
    00:00 +4°C° 0 mm 3 mps 686 mmHg 37%
    01:00 +3°C° 0 mm 3 mps 686 mmHg 37%
    02:00 +3°C° 0 mm 3 mps 685 mmHg 37%
    03:00 +3°C° 0 mm 3 mps 685 mmHg 36%
    04:00 +3°C° 0 mm 3 mps 685 mmHg 36%
    05:00 +3°C° 0 mm 3 mps 685 mmHg 36%
    06:00 +3°C° 0 mm 3 mps 685 mmHg 35%
    07:00 +3°C° 0 mm 4 mps 685 mmHg 35%
    08:00 +5°C° 0 mm 4 mps 685 mmHg 31%
    09:00 +6°C° 0 mm 4 mps 685 mmHg 28%
    10:00 +8°C° 0 mm 4 mps 685 mmHg 24%
    11:00 +10°C° 0 mm 3 mps 685 mmHg 22%
    12:00 +11°C° 0 mm 3 mps 684 mmHg 20%
    13:00 +12°C° 0 mm 3 mps 683 mmHg 18%
    14:00 +13°C° 0 mm 2 mps 683 mmHg 19%
    15:00 +13°C° 0 mm 2 mps 683 mmHg 20%
    16:00 +13°C° 0 mm 2 mps 683 mmHg 22%
    17:00 +12°C° 0 mm 2 mps 683 mmHg 24%
    18:00 +10°C° 0 mm 3 mps 683 mmHg 27%
    19:00 +7°C° 0 mm 4 mps 684 mmHg 30%
    20:00 +7°C° 0 mm 4 mps 684 mmHg 32%
    21:00 +7°C° 0 mm 4 mps 684 mmHg 33%
    22:00 +6°C° 0 mm 4 mps 684 mmHg 35%
    23:00 +6°C° 0 mm 4 mps 684 mmHg 35%

    26 Enero, Sábado

    Tiempo Temperatura Precipitaciones Viento Presión Humedad
    00:00 +6°C° 0 mm 4 mps 683 mmHg 35%
    01:00 +6°C° 0 mm 4 mps 683 mmHg 35%
    02:00 +6°C° 0 mm 4 mps 683 mmHg 35%
    03:00 +6°C° 0 mm 4 mps 683 mmHg 34%
    04:00 +6°C° 0 mm 4 mps 683 mmHg 34%
    05:00 +6°C° 0 mm 4 mps 683 mmHg 34%
    06:00 +5°C° 0 mm 4 mps 683 mmHg 34%
    07:00 +5°C° 0 mm 4 mps 684 mmHg 34%
    08:00 +7°C° 0 mm 5 mps 684 mmHg 31%
    09:00 +9°C° 0 mm 5 mps 685 mmHg 28%
    10:00 +12°C° 0 mm 5 mps 685 mmHg 25%
    11:00 +13°C° 0 mm 5 mps 685 mmHg 23%
    12:00 +13°C° 0 mm 5 mps 684 mmHg 21%
    13:00 +14°C° 0 mm 5 mps 684 mmHg 20%
    14:00 +14°C° 0 mm 5 mps 684 mmHg 21%
    15:00 +14°C° 0 mm 5 mps 684 mmHg 21%
    16:00 +14°C° 0 mm 4 mps 683 mmHg 22%
    17:00 +12°C° 0 mm 4 mps 684 mmHg 25%
    18:00 +11°C° 0 mm 4 mps 684 mmHg 28%
    19:00 +10°C° 0 mm 4 mps 684 mmHg 32%
    20:00 +8°C° 0 mm 4 mps 684 mmHg 32%
    21:00 +8°C° 0 mm 4 mps 684 mmHg 33%
    22:00 +8°C° 0 mm 4 mps 685 mmHg 34%
    23:00 +8°C° 0 mm 5 mps 685 mmHg 34%

    27 Enero, Domingo

    Tiempo Temperatura Precipitaciones Viento Presión Humedad
    00:00 +7°C° 0 mm 5 mps 685 mmHg 34%
    01:00 +7°C° 0 mm 5 mps 685 mmHg 34%
    02:00 +7°C° 0 mm 5 mps 685 mmHg 34%
    03:00 +7°C° 0 mm 5 mps 684 mmHg 34%
    04:00 +7°C° 0 mm 5 mps 684 mmHg 34%
    05:00 +7°C° 0 mm 5 mps 684 mmHg 34%
    06:00 +7°C° 0 mm 5 mps 685 mmHg 34%
    07:00 +7°C° 0 mm 6 mps 685 mmHg 34%
    08:00 +9°C° 0 mm 6 mps 685 mmHg 30%
    09:00 +11°C° 0 mm 6 mps 685 mmHg 26%
    10:00 +14°C° 0 mm 6 mps 686 mmHg 22%
    11:00 +16°C° 0 mm 6 mps 685 mmHg 21%
    12:00 +17°C° 0 mm 6 mps 685 mmHg 19%
    13:00 +19°C° 0 mm 6 mps 684 mmHg 17%
    14:00 +19°C° 0 mm 6 mps 684 mmHg 19%
    15:00 +17°C° 0 mm 5 mps 684 mmHg 20%
    16:00 +17°C° 0 mm 5 mps 684 mmHg 21%
    17:00 +16°C° 0 mm 5 mps 684 mmHg 24%
    18:00 +14°C° 0 mm 5 mps 684 mmHg 26%
    19:00 +13°C° 0 mm 5 mps 684 mmHg 29%
    20:00 +13°C° 0 mm 6 mps 684 mmHg 29%
    21:00 +13°C° 0 mm 6 mps 684 mmHg 30%
    22:00 +13°C° 0 mm 6 mps 684 mmHg 30%
    23:00 +13°C° 0 mm 6 mps 684 mmHg 31%

    28 Enero, Lunes

    Tiempo Temperatura Precipitaciones Viento Presión Humedad
    00:00 +13°C° 0 mm 6 mps 684 mmHg 31%
    01:00 +13°C° 0 mm 6 mps 684 mmHg 31%
    02:00 +11°C° 0 mm 6 mps 684 mmHg 32%
    03:00 +11°C° 0 mm 6 mps 684 mmHg 33%
    04:00 +11°C° 0 mm 6 mps 683 mmHg 34%
    05:00 +11°C° 0 mm 6 mps 684 mmHg 35%
    06:00 +11°C° 0 mm 6 mps 684 mmHg 36%
    07:00 +11°C° 0 mm 6 mps 684 mmHg 36%
    08:00 +14°C° 0 mm 6 mps 684 mmHg 34%
    09:00 +16°C° 0 mm 7 mps 685 mmHg 32%
    10:00 +18°C° 0 mm 7 mps 685 mmHg 30%
    11:00 +20°C° 0 mm 6 mps 685 mmHg 29%
    12:00 +21°C° 0 mm 6 mps 684 mmHg 28%
    13:00 +22°C° 0 mm 5 mps 684 mmHg 27%
    14:00 +21°C° 0 mm 6 mps 683 mmHg 28%
    15:00 +20°C° 0 mm 6 mps 683 mmHg 30%
    16:00 +20°C° 0 mm 6 mps 683 mmHg 32%
    17:00 +19°C° 0.2 mm 6 mps 683 mmHg 36%
    18:00 +17°C° 0.2 mm 6 mps 683 mmHg 40%
    19:00 +16°C° 0.2 mm 6 mps 682 mmHg 44%
    20:00 +16°C° 0.1 mm 7 mps 682 mmHg 43%
    21:00 +16°C° 0.1 mm 7 mps 682 mmHg 43%
    22:00 +16°C° 0.1 mm 7 mps 682 mmHg 43%
    23:00 +15°C° 0 mm 7 mps 681 mmHg 44%
    Mostrar más